[[{"header":{"parameterUnit":"m.s-1","parameterCategory":1,"la1":30.2991,"la2":30.254,"lo1":-89.0895,"lo2":-89.0444,"dy":0.0017,"dx":0.0017,"nx":28,"ny":28,"refTime":"2023-07-17T21:00:00:Z","depth":0,"parameterNumber":2,"parameterNumberName":"U-component_of_WINDS"},"data":[0,0,0,0,0,0,0,0,0,0,0,0,0,0,0,0,0,0,0,0,0,0,0,0,0,0,0,0,0,0,0,0,0,0,0,0,0,0,0,0,0,0,0,0,0,0,0,0,0,0,0,0,0,0,0,0,0,0,1.4297,1.4298,0,1.4372,1.4373,1.4374,1.4367,1.4366,1.4364,1.4363,1.4446,1.4449,1.4453,0,0,0,0,0,0,0,0,0,0,0,0,0,1.415,1.4153,1.4297,1.4298,1.4299,1.4372,1.4373,1.4374,1.4367,1.4366,1.4364,1.4363,1.4445,1.4449,1.4453,0,0,0,0,0,0,0,0,0,0,0,0,0,1.4219,1.4154,1.4297,1.4304,1.4305,1.4372,1.4373,1.4375,1.4367,1.4366,1.4364,1.4362,1.4444,1.4448,1.4453,1.452,0,0,1.4469,1.4471,0,0,0,0,0,0,0,0,1.4215,1.4224,1.4302,1.4303,1.4305,1.4358,1.4352,1.4424,1.4368,1.4344,1.4363,1.4361,1.4419,1.4426,1.4444,1.4524,1.4527,1.4469,1.4472,1.4474,1.4476,0,0,0,0,0,0,0,1.421,1.4221,1.4327,1.4303,1.4305,1.4304,1.4312,1.4366,1.4391,1.4346,1.4345,1.4354,1.4419,1.4439,1.4446,1.4528,1.4469,1.4473,1.4476,1.4478,1.4665,1.4667,0,0,0,0,0,0,1.4203,1.4217,1.4325,1.4329,1.4254,1.4309,1.4317,1.4343,1.439,1.4395,1.4356,1.4354,1.4431,1.444,1.4449,1.4528,1.4474,1.4479,1.4482,1.4663,1.4666,1.4668,0,0,0,0,0,0,1.42,1.4213,1.4321,1.4273,1.4287,1.4313,1.4342,1.4346,1.4365,1.4397,1.4402,1.4371,1.443,1.4442,1.4501,1.4531,1.4481,1.4486,1.4661,1.4664,1.4667,1.4688,0,0,0,0,0,0,1.4196,1.4212,1.4236,1.4273,1.4289,1.4372,1.4344,1.4348,1.4373,1.4371,1.4413,1.4418,1.443,1.4494,1.4506,1.4537,1.4489,1.4658,1.4662,1.4666,1.4684,1.4691,1.4697,0,0,0,0,0,1.419,1.4241,1.4237,1.425,1.432,1.4373,1.4383,1.4393,1.4376,1.4401,1.4421,1.4417,1.4526,1.45,1.4514,1.4546,1.4657,1.4661,1.4666,1.4682,1.469,1.4696,0,0,0,0,0,0,1.4208,1.4246,1.4242,1.4306,1.4336,1.4372,1.4404,1.4402,1.4439,1.4436,1.445,1.4459,1.4519,1.4539,1.451,1.4612,1.4589,1.4596,1.4597,1.4604,1.461,1.4604,1.4494,0,0,0,0,0,1.4219,1.4257,1.4289,1.4342,1.4357,1.4378,1.4402,1.4407,1.444,1.4453,1.4478,1.4511,1.4553,1.458,1.462,1.4688,1.4696,1.4717,1.4723,1.4728,1.4734,1.4769,1.4778,1.4682,1.4682,1.4682,0,0,1.4242,1.4268,1.4292,1.4346,1.437,1.441,1.4389,1.4433,1.4463,1.4461,1.4517,1.4537,1.4575,1.4638,1.4668,1.4657,1.4762,1.4733,1.4737,1.474,1.4775,1.4784,1.4792,1.4685,1.4685,1.4684,0,0,1.4305,1.4329,1.4374,1.4398,1.4434,1.4448,1.4459,1.4495,1.4507,1.4564,1.4562,1.46,1.4671,1.4698,1.4721,1.4793,1.479,1.4806,1.4837,1.4872,1.4879,1.4886,1.491,1.4919,1.4812,1.4812,1.4812,0,1.433,1.4389,1.4399,1.4442,1.4466,1.4463,1.451,1.4534,1.4582,1.4599,1.4586,1.4674,1.47,1.4769,1.4786,1.4805,1.4818,1.48,1.4877,1.4884,1.489,1.4914,1.4923,1.4814,1.4813,1.4813,1.4813,0,1.4417,1.4458,1.4491,1.4535,1.4563,1.4608,1.4625,1.4652,1.4656,1.4671,1.4729,1.4759,1.4805,1.4822,1.4827,1.4891,1.4883,1.4874,1.485,1.4901,1.4923,1.4932,1.4816,1.4815,1.4815,1.4814,0,0,1.4492,1.454,1.4552,1.4571,1.461,1.4643,1.4688,1.4731,1.4753,1.4787,1.4825,1.4885,1.4876,1.4902,1.491,1.4941,1.4994,1.4927,1.4928,1.4937,1.5065,1.5071,1.5081,1.4992,1.4994,1.4996,1.5061,0,1.4557,1.4635,1.4644,1.4714,1.4752,1.475,1.4789,1.4818,1.4834,1.4869,1.4887,1.4929,1.4914,1.493,1.496,1.4981,1.5019,1.4976,1.5028,1.503,1.5016,1.5093,1.5099,1.5159,1.507,1.5072,1.5073,0,1.4644,1.4677,1.4749,1.4782,1.4798,1.4833,1.4872,1.4906,1.4939,1.4948,1.4977,1.498,1.5028,1.5003,1.5069,1.5039,1.5062,1.5075,1.5078,1.5082,1.5053,1.5097,1.5179,1.5188,1.5087,1.5086,1.5085,0,1.4688,1.4752,1.4803,1.482,1.486,1.4884,1.4903,1.4934,1.4958,1.4993,1.5009,1.5051,1.5073,1.5105,1.512,1.5101,1.5184,1.5161,1.5193,1.5192,1.5209,1.5208,1.5294,1.5226,1.5226,1.5226,1.5226,0,1.4759,1.4803,1.4823,1.4855,1.4904,1.4915,1.4964,1.4982,1.501,1.5045,1.5047,1.5081,1.5099,1.5136,1.5148,1.52,1.5211,1.5219,1.5222,1.5218,1.5217,1.5232,1.5227,1.5229,1.5228,1.5228,1.5227,0,1.4817,1.4832,1.4887,1.492,1.493,1.4965,1.4993,1.5024,1.5039,1.5084,1.5095,1.512,1.5162,1.5181,1.5235,1.5243,1.5301,1.5302,1.5289,1.529,1.532,1.5316,1.5418,1.5431,1.5356,1.5356,1.5357,0,1.486,1.4893,1.4929,1.4952,1.497,1.5008,1.5032,1.5045,1.507,1.511,1.5136,1.5179,1.5213,1.5282,1.5305,1.5346,1.5346,1.5379,1.5353,1.5347,1.5345,1.5342,1.5345,1.5384,1.5384,1.5385,1.5385,0,1.4934,1.4939,1.4973,1.501,1.5039,1.5069,1.5099,1.5118,1.5135,1.5164,1.5207,1.5233,1.5287,1.5329,1.5371,1.5391,1.5391,1.5394,1.5403,1.5399,1.5389,1.5393,1.5301,1.5391,1.539,1.539,1.539,1.539,1.4984,1.5013,1.5042,1.508,1.5103,1.5131,1.516,1.5179,1.5214,1.5257,1.5263,1.5309,1.5341,1.5397,1.5419,1.5455,1.5447,1.5461,1.5464,1.5467,1.5468,1.5384,1.5464,1.5463,1.5463,1.5463,1.5463,0,1.5056,1.5075,1.511,1.515,1.518,1.5176,1.5208,1.5234,1.5273,1.5302,1.5335,1.5384,1.5425,1.5451,1.5492,1.5517,1.5518,1.5527,1.5524,1.5529,1.5474,1.5461,1.5525,1.5525,1.5525,1.5525,1.5525,1.5525,1.5097,1.5145,1.5155,1.5215,1.5234,1.5276,1.5295,1.532,1.5343,1.5397,1.543,1.5446,1.5475,1.5518,1.5555,1.5562,1.5576,1.5586,1.5592,1.5539,1.5533,1.5527,1.5514,1.5589,1.5589,1.5644,1.5644,1.5645]},{"header":{"parameterUnit":"m.s-1","parameterCategory":1,"la1":30.2991,"la2":30.254,"lo1":-89.0895,"lo2":-89.0444,"dy":0.0017,"dx":0.0017,"nx":28,"ny":28,"refTime":"2023-07-17T21:00:00:Z","depth":0,"parameterNumber":3,"parameterNumberName":"V-component_of_WINDS"},"data":[0,0,0,0,0,0,0,0,0,0,0,0,0,0,0,0,0,0,0,0,0,0,0,0,0,0,0,0,0,0,0,0,0,0,0,0,0,0,0,0,0,0,0,0,0,0,0,0,0,0,0,0,0,0,0,0,0,0,3.0488,3.0488,0,3.0456,3.0455,3.0455,3.0411,3.041,3.0409,3.0409,3.0375,3.0375,3.0375,0,0,0,0,0,0,0,0,0,0,0,0,0,3.0511,3.0511,3.0488,3.0488,3.0487,3.0456,3.0455,3.0455,3.0411,3.041,3.0409,3.0408,3.0376,3.0375,3.0375,0,0,0,0,0,0,0,0,0,0,0,0,0,3.0492,3.0511,3.0488,3.0461,3.0459,3.0456,3.0455,3.0455,3.0411,3.041,3.0409,3.0408,3.0376,3.0375,3.0375,3.0395,0,0,3.0374,3.0374,0,0,0,0,0,0,0,0,3.0493,3.0491,3.0466,3.0463,3.046,3.0436,3.0451,3.0435,3.0411,3.0429,3.0409,3.0407,3.0397,3.0394,3.0391,3.0394,3.0392,3.0374,3.0374,3.0374,3.0374,0,0,0,0,0,0,0,3.0495,3.0493,3.0475,3.0465,3.0462,3.0451,3.0447,3.0448,3.042,3.0428,3.0424,3.0421,3.0395,3.0391,3.039,3.0392,3.0374,3.0374,3.0374,3.0374,3.0409,3.041,0,0,0,0,0,0,3.05,3.0494,3.0476,3.0474,3.0474,3.0452,3.0447,3.0445,3.0419,3.0414,3.0422,3.0419,3.0392,3.039,3.0388,3.0409,3.0374,3.0374,3.0373,3.0408,3.0409,3.041,0,0,0,0,0,0,3.0501,3.0499,3.0477,3.0483,3.048,3.0452,3.045,3.0445,3.0441,3.0415,3.041,3.0424,3.0391,3.0389,3.0394,3.0408,3.0373,3.0373,3.0406,3.0408,3.041,3.0453,0,0,0,0,0,0,3.0502,3.0499,3.0507,3.0484,3.0479,3.0484,3.0451,3.0445,3.0441,3.0437,3.0415,3.0411,3.039,3.0394,3.0393,3.0407,3.0373,3.0405,3.0407,3.0409,3.045,3.0456,3.0461,0,0,0,0,0,3.0503,3.0521,3.0508,3.0506,3.0488,3.0485,3.0482,3.0458,3.0442,3.0449,3.0433,3.0411,3.0407,3.0395,3.0394,3.0407,3.0404,3.0407,3.0409,3.0448,3.0455,3.0461,0,0,0,0,0,0,3.0547,3.0517,3.0502,3.0514,3.0502,3.0477,3.0486,3.0467,3.0459,3.0456,3.0427,3.0422,3.043,3.0419,3.0407,3.0425,3.0402,3.0404,3.0432,3.0438,3.0444,3.0446,3.0373,0,0,0,0,0,3.0558,3.0557,3.0531,3.0544,3.0539,3.0513,3.0511,3.0493,3.048,3.0475,3.0458,3.0446,3.0442,3.044,3.0434,3.0448,3.0442,3.0457,3.0462,3.0467,3.0469,3.0474,3.048,3.0418,3.0418,3.0418,0,0,3.058,3.0564,3.0566,3.0552,3.0541,3.0541,3.0509,3.0511,3.051,3.0475,3.0478,3.0466,3.045,3.046,3.0463,3.0451,3.0485,3.047,3.0474,3.0473,3.0477,3.0483,3.0489,3.042,3.042,3.042,0,0,3.0621,3.061,3.0618,3.0607,3.0591,3.0574,3.0576,3.0554,3.0544,3.0547,3.0521,3.0519,3.0513,3.0502,3.0496,3.0533,3.0513,3.0532,3.056,3.0565,3.057,3.0574,3.0586,3.0591,3.0534,3.0535,3.0535,0,3.0651,3.065,3.0625,3.0627,3.0622,3.059,3.0598,3.0589,3.0572,3.0569,3.0555,3.0546,3.0533,3.0539,3.0548,3.0544,3.0545,3.0534,3.0572,3.0576,3.0579,3.059,3.0595,3.0537,3.0537,3.0536,3.0536,0,3.0687,3.0687,3.0696,3.0679,3.0675,3.0681,3.0656,3.0654,3.0637,3.0621,3.0624,3.0608,3.0598,3.0599,3.0582,3.0602,3.0595,3.0577,3.0553,3.0588,3.0598,3.0602,3.054,3.0539,3.0539,3.0538,0,0,3.0755,3.0724,3.0728,3.072,3.0699,3.0698,3.0702,3.0692,3.0691,3.068,3.0682,3.0677,3.066,3.0653,3.0636,3.0641,3.0669,3.0622,3.0621,3.0631,3.0689,3.0702,3.0707,3.0656,3.0657,3.0658,3.069,0,3.0791,3.0795,3.0773,3.0783,3.0782,3.0752,3.0755,3.0742,3.0728,3.0724,3.0708,3.0704,3.0683,3.0679,3.0682,3.0665,3.0681,3.0663,3.0657,3.0657,3.0661,3.0713,3.0727,3.0758,3.0694,3.0695,3.0695,0,3.0833,3.0825,3.0835,3.0813,3.0812,3.0815,3.0804,3.0802,3.0787,3.0776,3.0768,3.0747,3.0749,3.0726,3.0728,3.0716,3.0712,3.0703,3.0704,3.0702,3.0678,3.0711,3.0768,3.0772,3.0701,3.0701,3.07,0,3.088,3.0871,3.0876,3.087,3.0845,3.0848,3.0838,3.0822,3.0817,3.0808,3.0804,3.0795,3.079,3.0783,3.076,3.0746,3.0764,3.074,3.0754,3.0755,3.0759,3.0759,3.0814,3.0758,3.0758,3.0758,3.0757,0,3.0922,3.0929,3.0896,3.0899,3.0906,3.088,3.0888,3.0874,3.086,3.086,3.0833,3.0833,3.0804,3.08,3.0782,3.0785,3.0784,3.0774,3.0769,3.0776,3.0777,3.0773,3.077,3.0759,3.0759,3.0758,3.0758,0,3.0975,3.0953,3.0956,3.0933,3.0927,3.0933,3.0912,3.0914,3.0898,3.0897,3.0896,3.087,3.0864,3.0841,3.083,3.0818,3.0827,3.0818,3.0832,3.0829,3.0844,3.0842,3.0898,3.0904,3.0844,3.0845,3.0846,0,3.1003,3.1008,3.0984,3.0982,3.0973,3.097,3.0965,3.094,3.0936,3.0919,3.0922,3.0915,3.0907,3.0899,3.088,3.0871,3.0861,3.0881,3.0859,3.0866,3.086,3.086,3.086,3.0885,3.0886,3.0887,3.0887,0,3.1054,3.1043,3.1037,3.1028,3.1023,3.1014,3.1004,3.1004,3.0975,3.0972,3.0966,3.096,3.0949,3.0941,3.0929,3.0918,3.0897,3.0894,3.0897,3.0904,3.0911,3.0906,3.0844,3.0893,3.0892,3.0892,3.0892,3.0891,3.1094,3.1097,3.1081,3.1075,3.1065,3.1056,3.1056,3.104,3.1035,3.1023,3.1009,3.1004,3.0989,3.097,3.0961,3.0957,3.0945,3.095,3.095,3.0952,3.0955,3.0913,3.0954,3.0954,3.0954,3.0954,3.0954,0,3.1143,3.1132,3.1127,3.1113,3.1109,3.1091,3.1078,3.1076,3.1072,3.106,3.1053,3.1046,3.1038,3.1018,3.1008,3.1009,3.0999,3.1007,3.1007,3.1004,3.0966,3.0964,3.1015,3.1015,3.1015,3.1015,3.1015,3.1015,3.1168,3.1171,3.1159,3.1156,3.1145,3.114,3.1135,3.1126,3.1116,3.1109,3.1103,3.109,3.1074,3.1063,3.1055,3.1049,3.1047,3.1057,3.1049,3.1013,3.1007,3.1001,3.1,3.1057,3.1057,3.1087,3.1087,3.1088]}]]